SDG094 LIME-LIEE

Flight info

Callsign SDG094
Flight time 1h 9m
Altitude 35000
Route EKPAL DCT TINKU DCT MAREL DCT GILIO DCT MAMAR DCT SUKUN DCT LABOM Q125 KOVAS
Aircraft A321/M-SDE3FGHIRWY/LB1

Departure

Time 2026-05-08 17:04
Airport Il Caravaggio International Airport (LIME)

Arrival

Time 2026-05-08 18:14
Airport Cagliari Elmas Airport (LIEE)
Time Latitude Longitude Altitude Speed Heading
2026-05-08 16:27 45.66645 9.70121 790 ft 0 kts 194°
2026-05-08 16:53 45.66667 9.70129 789 ft 4 kts 194°
2026-05-08 16:53 45.66690 9.70138 789 ft 4 kts 192°
2026-05-08 16:54 45.66713 9.70136 789 ft 4 kts 135°
2026-05-08 16:54 45.66724 9.70106 790 ft 3 kts 102°
2026-05-08 16:54 45.66726 9.70096 790 ft 0 kts 102°
2026-05-08 16:57 45.66723 9.70114 790 ft 6 kts 102°
2026-05-08 16:58 45.66707 9.70206 789 ft 10 kts 105°
2026-05-08 16:58 45.66686 9.70318 788 ft 15 kts 105°
2026-05-08 16:58 45.66656 9.70474 787 ft 16 kts 104°
2026-05-08 16:58 45.66627 9.70628 786 ft 16 kts 105°
2026-05-08 16:59 45.66599 9.70782 785 ft 18 kts 104°
2026-05-08 16:59 45.66568 9.70948 784 ft 17 kts 105°
2026-05-08 16:59 45.66536 9.71109 783 ft 16 kts 110°
2026-05-08 16:59 45.66497 9.71255 782 ft 16 kts 107°
2026-05-08 17:00 45.66469 9.71405 780 ft 16 kts 105°
2026-05-08 17:00 45.66441 9.71559 779 ft 16 kts 99°
2026-05-08 17:00 45.66457 9.71710 778 ft 15 kts 75°
2026-05-08 17:00 45.66471 9.71856 777 ft 15 kts 94°
2026-05-08 17:01 45.66449 9.71998 775 ft 14 kts 104°
2026-05-08 17:01 45.66424 9.72133 775 ft 14 kts 104°
2026-05-08 17:01 45.66401 9.72259 774 ft 13 kts 104°
2026-05-08 17:01 45.66381 9.72370 773 ft 7 kts 103°
2026-05-08 17:02 45.66383 9.72434 773 ft 6 kts 69°
2026-05-08 17:02 45.66433 9.72452 773 ft 10 kts 342°
2026-05-08 17:02 45.66471 9.72384 773 ft 8 kts 290°
2026-05-08 17:02 45.66484 9.72320 774 ft 5 kts 284°
2026-05-08 17:03 45.66489 9.72291 774 ft 0 kts 284°
2026-05-08 17:03 45.66514 9.72152 775 ft 47 kts 284°
2026-05-08 17:03 45.66657 9.71382 781 ft 110 kts 284°
2026-05-08 17:04 45.66894 9.70084 806 ft 156 kts 282°
2026-05-08 17:04 45.67158 9.68577 1305 ft 159 kts 278°
2026-05-08 17:04 45.67006 9.67025 1870 ft 161 kts 243°
2026-05-08 17:04 45.66252 9.65762 2176 ft 178 kts 218°
2026-05-08 17:05 45.65311 9.64520 2496 ft 189 kts 225°
2026-05-08 17:05 45.64402 9.63156 2980 ft 190 kts 227°
2026-05-08 17:05 45.63497 9.61770 3474 ft 191 kts 227°
2026-05-08 17:05 45.62585 9.60378 3948 ft 192 kts 227°
2026-05-08 17:06 45.61677 9.59002 4416 ft 193 kts 226°
2026-05-08 17:06 45.60710 9.57580 4650 ft 208 kts 225°
2026-05-08 17:06 45.59469 9.56376 4791 ft 229 kts 197°
2026-05-08 17:06 45.57823 9.56338 4959 ft 251 kts 163°
2026-05-08 17:07 45.56117 9.57219 5342 ft 266 kts 158°
2026-05-08 17:07 45.54381 9.58197 6090 ft 269 kts 158°
2026-05-08 17:07 45.52635 9.59197 6828 ft 271 kts 158°
2026-05-08 17:07 45.50872 9.60202 7528 ft 274 kts 158°
2026-05-08 17:08 45.49088 9.61212 8238 ft 277 kts 158°
2026-05-08 17:08 45.47284 9.62226 8935 ft 280 kts 159°
2026-05-08 17:08 45.45457 9.63247 9635 ft 283 kts 159°
2026-05-08 17:08 45.43608 9.64276 10254 ft 288 kts 159°
2026-05-08 17:09 45.41732 9.65317 10853 ft 292 kts 159°
2026-05-08 17:09 45.39838 9.66368 11257 ft 304 kts 159°
2026-05-08 17:09 45.37792 9.67500 11388 ft 326 kts 159°
2026-05-08 17:09 45.35614 9.68708 11520 ft 346 kts 159°
2026-05-08 17:10 45.33337 9.69974 11903 ft 355 kts 159°
2026-05-08 17:10 45.31018 9.71259 12478 ft 360 kts 159°
2026-05-08 17:10 45.28674 9.72555 13076 ft 364 kts 159°
2026-05-08 17:10 45.26302 9.73866 13681 ft 368 kts 159°
2026-05-08 17:11 45.23903 9.75191 14229 ft 371 kts 159°
2026-05-08 17:11 45.21482 9.76527 14767 ft 375 kts 159°
2026-05-08 17:11 45.19040 9.77872 15300 ft 378 kts 159°
2026-05-08 17:11 45.16609 9.79207 15820 ft 381 kts 159°
2026-05-08 17:12 45.14126 9.80570 16302 ft 386 kts 160°
2026-05-08 17:12 45.11613 9.81947 16822 ft 389 kts 159°
2026-05-08 17:12 45.09079 9.83338 17342 ft 392 kts 159°
2026-05-08 17:12 45.06526 9.84738 17827 ft 396 kts 160°
2026-05-08 17:13 45.03948 9.86146 18334 ft 398 kts 159°
2026-05-08 17:13 45.01353 9.87566 18754 ft 402 kts 160°
2026-05-08 17:13 44.98740 9.88997 19183 ft 404 kts 160°
2026-05-08 17:13 44.96113 9.90432 19619 ft 406 kts 160°
2026-05-08 17:14 44.93466 9.91878 20041 ft 408 kts 160°
2026-05-08 17:14 44.90811 9.93330 20467 ft 411 kts 160°
2026-05-08 17:14 44.88136 9.94790 20907 ft 413 kts 161°
2026-05-08 17:14 44.85450 9.96251 21347 ft 415 kts 161°
2026-05-08 17:15 44.82745 9.97712 21756 ft 418 kts 161°
2026-05-08 17:15 44.80017 9.99186 22174 ft 420 kts 161°
2026-05-08 17:15 44.77277 10.00675 22573 ft 423 kts 161°
2026-05-08 17:15 44.74524 10.02171 22968 ft 425 kts 161°
2026-05-08 17:16 44.71758 10.03672 23436 ft 426 kts 162°
2026-05-08 17:16 44.68988 10.05173 23820 ft 428 kts 162°
2026-05-08 17:16 44.66196 10.06683 24136 ft 431 kts 162°
2026-05-08 17:16 44.63387 10.08200 24440 ft 434 kts 162°
2026-05-08 17:17 44.60562 10.09719 24735 ft 436 kts 162°
2026-05-08 17:17 44.57710 10.11252 25022 ft 440 kts 162°
2026-05-08 17:17 44.54845 10.12792 25311 ft 443 kts 162°
2026-05-08 17:17 44.51963 10.14340 25604 ft 445 kts 163°
2026-05-08 17:18 44.49061 10.15898 25889 ft 448 kts 163°
2026-05-08 17:18 44.46141 10.17461 26169 ft 451 kts 163°
2026-05-08 17:18 44.43197 10.19026 26447 ft 454 kts 163°
2026-05-08 17:18 44.40275 10.20574 26713 ft 456 kts 163°
2026-05-08 17:19 44.37297 10.22147 27025 ft 458 kts 164°
2026-05-08 17:19 44.34317 10.23716 27290 ft 460 kts 164°
2026-05-08 17:19 44.31308 10.25302 27544 ft 462 kts 164°
2026-05-08 17:19 44.28292 10.26895 27773 ft 466 kts 164°
2026-05-08 17:20 44.25251 10.28502 28038 ft 468 kts 164°
2026-05-08 17:20 44.22201 10.30114 28250 ft 471 kts 164°
2026-05-08 17:20 44.19121 10.31737 28554 ft 473 kts 165°
2026-05-08 17:20 44.16031 10.33358 28790 ft 475 kts 165°
2026-05-08 17:21 44.12923 10.34987 28957 ft 478 kts 165°
2026-05-08 17:21 44.09803 10.36620 29180 ft 481 kts 165°
2026-05-08 17:21 44.06665 10.38260 29402 ft 484 kts 165°
2026-05-08 17:21 44.03500 10.39914 29604 ft 486 kts 165°
2026-05-08 17:22 44.00336 10.41565 29926 ft 487 kts 166°
2026-05-08 17:22 43.97158 10.43224 30175 ft 488 kts 166°
2026-05-08 17:22 43.93983 10.44884 30448 ft 487 kts 166°
2026-05-08 17:22 43.90818 10.46539 30758 ft 486 kts 166°
2026-05-08 17:23 43.87658 10.48189 31049 ft 485 kts 166°
2026-05-08 17:23 43.84538 10.49811 31354 ft 484 kts 166°
2026-05-08 17:23 43.81383 10.51440 31673 ft 483 kts 166°
2026-05-08 17:23 43.78240 10.53057 31997 ft 481 kts 167°
2026-05-08 17:24 43.75056 10.54326 32303 ft 472 kts 175°
2026-05-08 17:24 43.71840 10.55096 32641 ft 468 kts 178°
2026-05-08 17:24 43.68632 10.55834 32999 ft 466 kts 178°
2026-05-08 17:24 43.65437 10.56575 33341 ft 464 kts 178°
2026-05-08 17:25 43.62254 10.57315 33673 ft 463 kts 178°
2026-05-08 17:25 43.59077 10.58053 33970 ft 463 kts 178°
2026-05-08 17:25 43.55904 10.58784 34214 ft 462 kts 178°
2026-05-08 17:25 43.52731 10.59512 34449 ft 462 kts 178°
2026-05-08 17:26 43.49566 10.60240 34716 ft 460 kts 177°
2026-05-08 17:26 43.46409 10.60967 34943 ft 460 kts 177°
2026-05-08 17:26 43.40127 10.62413 35015 ft 456 kts 177°
2026-05-08 17:27 43.33884 10.63843 35009 ft 455 kts 177°
2026-05-08 17:27 43.27651 10.65271 35009 ft 454 kts 176°
2026-05-08 17:28 43.21452 10.67003 35009 ft 456 kts 174°
2026-05-08 17:28 43.15274 10.68990 35012 ft 456 kts 173°
2026-05-08 17:29 43.09090 10.70956 35007 ft 455 kts 174°
2026-05-08 17:29 43.02949 10.72831 35012 ft 455 kts 174°
2026-05-08 17:30 42.96768 10.74677 35019 ft 455 kts 174°
2026-05-08 17:30 42.90587 10.76530 35004 ft 454 kts 174°
2026-05-08 17:31 42.84418 10.78388 35020 ft 454 kts 174°
2026-05-08 17:31 42.78255 10.80237 35020 ft 452 kts 174°
2026-05-08 17:32 42.72112 10.82070 35020 ft 452 kts 174°
2026-05-08 17:32 42.66013 10.83889 35012 ft 451 kts 174°
2026-05-08 17:33 42.59882 10.85718 35018 ft 451 kts 174°
2026-05-08 17:33 42.53758 10.87549 35021 ft 450 kts 174°
2026-05-08 17:34 42.47640 10.89367 35015 ft 450 kts 174°
2026-05-08 17:34 42.41526 10.91171 35024 ft 449 kts 174°
2026-05-08 17:35 42.35421 10.92976 35025 ft 449 kts 174°
2026-05-08 17:35 42.29326 10.94829 35024 ft 449 kts 174°
2026-05-08 17:36 42.23240 10.96719 35025 ft 449 kts 174°
2026-05-08 17:36 42.17153 10.98594 35024 ft 449 kts 174°
2026-05-08 17:37 42.11057 11.00447 35024 ft 449 kts 174°
2026-05-08 17:37 42.04971 11.02299 35013 ft 448 kts 174°
2026-05-08 17:38 41.98885 11.04154 35026 ft 448 kts 174°
2026-05-08 17:38 41.92848 11.05987 35033 ft 448 kts 174°
2026-05-08 17:39 41.86767 11.07714 35014 ft 442 kts 180°
2026-05-08 17:39 41.83735 11.07847 35021 ft 432 kts 191°
2026-05-08 17:39 41.80803 11.07243 35020 ft 422 kts 201°
2026-05-08 17:40 41.75590 11.04072 35022 ft 406 kts 220°
2026-05-08 17:40 41.71285 10.99261 35021 ft 403 kts 225°
2026-05-08 17:41 41.67745 10.95206 35023 ft 403 kts 225°
2026-05-08 17:41 41.63466 10.90334 35005 ft 404 kts 225°
2026-05-08 17:42 41.59199 10.85466 35008 ft 404 kts 225°
2026-05-08 17:42 41.54929 10.80588 35014 ft 404 kts 225°
2026-05-08 17:43 41.50652 10.75727 35018 ft 404 kts 225°
2026-05-08 17:43 41.46379 10.70878 35014 ft 403 kts 225°
2026-05-08 17:44 41.42110 10.66041 35035 ft 402 kts 225°
2026-05-08 17:44 41.37847 10.61216 35030 ft 402 kts 225°
2026-05-08 17:45 41.33588 10.56396 35040 ft 402 kts 224°
2026-05-08 17:45 41.29354 10.51623 35023 ft 402 kts 224°
2026-05-08 17:46 41.25088 10.46823 35018 ft 402 kts 224°
2026-05-08 17:46 41.20818 10.42014 35026 ft 403 kts 224°
2026-05-08 17:47 41.16539 10.37215 35027 ft 403 kts 224°
2026-05-08 17:47 41.12251 10.32421 35022 ft 403 kts 224°
2026-05-08 17:48 41.07962 10.27628 35023 ft 403 kts 224°
2026-05-08 17:48 41.03680 10.22851 35039 ft 401 kts 224°
2026-05-08 17:49 40.99412 10.18093 35055 ft 401 kts 224°
2026-05-08 17:49 40.95149 10.13353 35053 ft 400 kts 224°
2026-05-08 17:50 40.90911 10.08641 35052 ft 400 kts 224°
2026-05-08 17:50 40.86649 10.03918 35055 ft 398 kts 224°
2026-05-08 17:51 40.82407 9.99236 35063 ft 397 kts 224°
2026-05-08 17:51 40.78177 9.94578 35059 ft 395 kts 224°
2026-05-08 17:52 40.74075 9.89781 34722 ft 391 kts 230°
2026-05-08 17:52 40.70331 9.84558 33658 ft 396 kts 230°
2026-05-08 17:53 40.68426 9.81915 32843 ft 399 kts 229°
2026-05-08 17:53 40.66500 9.79257 32066 ft 402 kts 229°
2026-05-08 17:53 40.64605 9.76649 31567 ft 397 kts 229°
2026-05-08 17:53 40.62699 9.74025 31005 ft 395 kts 229°
2026-05-08 17:54 40.60808 9.71420 30440 ft 393 kts 229°
2026-05-08 17:54 40.58924 9.68826 29844 ft 391 kts 229°
2026-05-08 17:54 40.57055 9.66252 29280 ft 387 kts 229°
2026-05-08 17:54 40.55208 9.63709 28744 ft 382 kts 229°
2026-05-08 17:55 40.53378 9.61192 28209 ft 378 kts 229°
2026-05-08 17:55 40.51570 9.58707 27688 ft 374 kts 229°
2026-05-08 17:55 40.49777 9.56249 27164 ft 370 kts 229°
2026-05-08 17:55 40.48006 9.53824 26659 ft 367 kts 229°
2026-05-08 17:56 40.46248 9.51417 26156 ft 364 kts 229°
2026-05-08 17:56 40.44500 9.49029 25665 ft 362 kts 230°
2026-05-08 17:56 40.42758 9.46657 25175 ft 359 kts 230°
2026-05-08 17:56 40.41032 9.44304 24708 ft 357 kts 230°
2026-05-08 17:57 40.39278 9.42005 24244 ft 357 kts 224°
2026-05-08 17:57 40.37249 9.40118 23791 ft 360 kts 214°
2026-05-08 17:57 40.34956 9.38777 23287 ft 362 kts 206°
2026-05-08 17:57 40.32618 9.37612 22833 ft 357 kts 206°
2026-05-08 17:58 40.30311 9.36464 22395 ft 352 kts 206°
2026-05-08 17:58 40.28030 9.35323 21957 ft 349 kts 206°
2026-05-08 17:58 40.25775 9.34187 21524 ft 346 kts 207°
2026-05-08 17:58 40.23533 9.33055 21084 ft 343 kts 207°
2026-05-08 17:59 40.21315 9.31935 20635 ft 340 kts 207°
2026-05-08 17:59 40.19110 9.30828 20204 ft 339 kts 206°
2026-05-08 17:59 40.16912 9.29726 19762 ft 338 kts 206°
2026-05-08 17:59 40.14721 9.28627 19310 ft 337 kts 206°
2026-05-08 18:00 40.12535 9.27531 18862 ft 336 kts 206°
2026-05-08 18:00 40.08174 9.25345 17922 ft 334 kts 207°
2026-05-08 18:00 40.06009 9.24257 17469 ft 333 kts 207°
2026-05-08 18:01 40.03857 9.23177 17034 ft 330 kts 206°
2026-05-08 18:01 40.01718 9.22107 16596 ft 328 kts 206°
2026-05-08 18:01 39.99594 9.21050 16168 ft 326 kts 206°
2026-05-08 18:01 39.97476 9.19997 15743 ft 324 kts 206°
2026-05-08 18:02 39.95399 9.18961 15317 ft 324 kts 206°
2026-05-08 18:02 39.93977 9.18251 15033 ft 323 kts 206°
2026-05-08 18:02 39.91193 9.16861 14470 ft 324 kts 205°
2026-05-08 18:02 39.89090 9.15814 14036 ft 324 kts 205°
2026-05-08 18:03 39.86988 9.14771 13590 ft 323 kts 205°
2026-05-08 18:03 39.84852 9.13867 13145 ft 324 kts 199°
2026-05-08 18:03 39.82677 9.13138 12709 ft 322 kts 199°
2026-05-08 18:03 39.80502 9.12410 12270 ft 322 kts 199°
2026-05-08 18:04 39.78336 9.11685 11829 ft 321 kts 199°
2026-05-08 18:04 39.76180 9.10962 11393 ft 320 kts 199°
2026-05-08 18:04 39.74025 9.10239 10944 ft 320 kts 198°
2026-05-08 18:04 39.71873 9.09516 10501 ft 319 kts 198°
2026-05-08 18:05 39.69761 9.08807 10323 ft 306 kts 198°
2026-05-08 18:05 39.67759 9.08140 9946 ft 290 kts 198°
2026-05-08 18:05 39.65819 9.07489 9470 ft 287 kts 198°
2026-05-08 18:05 39.63852 9.07073 9012 ft 288 kts 184°
2026-05-08 18:06 39.61851 9.07110 8529 ft 287 kts 182°
2026-05-08 18:06 39.59863 9.07165 8017 ft 282 kts 181°
2026-05-08 18:06 39.57939 9.07218 7525 ft 270 kts 181°
2026-05-08 18:06 39.56145 9.07267 7389 ft 246 kts 181°
2026-05-08 18:07 39.54489 9.07261 7320 ft 238 kts 188°
2026-05-08 18:07 39.52878 9.06772 7023 ft 236 kts 204°
2026-05-08 18:07 39.51476 9.05748 6636 ft 234 kts 218°
2026-05-08 18:07 39.50174 9.04490 6248 ft 234 kts 217°
2026-05-08 18:08 39.48863 9.03247 5838 ft 233 kts 216°
2026-05-08 18:08 39.47554 9.02015 5418 ft 233 kts 216°
2026-05-08 18:08 39.46245 9.00784 5038 ft 232 kts 216°
2026-05-08 18:08 39.44939 8.99556 4625 ft 232 kts 216°
2026-05-08 18:09 39.43653 8.98348 4415 ft 223 kts 216°
2026-05-08 18:09 39.42432 8.97203 4280 ft 211 kts 216°
2026-05-08 18:09 39.41271 8.96113 4155 ft 201 kts 216°
2026-05-08 18:09 39.40161 8.95070 3982 ft 194 kts 216°
2026-05-08 18:10 39.39075 8.94050 3733 ft 192 kts 216°
2026-05-08 18:10 39.37990 8.93046 3460 ft 192 kts 211°
2026-05-08 18:10 39.36732 8.92635 3122 ft 189 kts 172°
2026-05-08 18:10 39.35574 8.93295 2836 ft 186 kts 138°
2026-05-08 18:11 39.34595 8.94441 2564 ft 188 kts 137°
2026-05-08 18:11 39.33639 8.95556 2300 ft 187 kts 137°
2026-05-08 18:11 39.32675 8.96681 1992 ft 187 kts 137°
2026-05-08 18:11 39.31714 8.97798 1698 ft 182 kts 137°
2026-05-08 18:12 39.30792 8.98867 1420 ft 174 kts 137°
2026-05-08 18:12 39.29907 8.99892 1161 ft 168 kts 138°
2026-05-08 18:12 39.29053 9.00885 940 ft 162 kts 138°
2026-05-08 18:12 39.28238 9.01833 690 ft 152 kts 139°
2026-05-08 18:13 39.27467 9.02731 402 ft 146 kts 139°
2026-05-08 18:13 39.26729 9.03590 195 ft 143 kts 139°
2026-05-08 18:13 39.25996 9.04444 42 ft 142 kts 139°
2026-05-08 18:13 39.25308 9.05241 14 ft 119 kts 138°
2026-05-08 18:14 39.24834 9.05791 17 ft 57 kts 137°
2026-05-08 18:14 39.24691 9.05984 15 ft 22 kts 105°
2026-05-08 18:14 39.24728 9.06137 15 ft 15 kts 33°
2026-05-08 18:14 39.24809 9.06101 15 ft 12 kts 318°
2026-05-08 18:15 39.24866 9.06029 15 ft 11 kts 316°
2026-05-08 18:15 39.24917 9.05968 15 ft 9 kts 318°
2026-05-08 18:15 39.24966 9.05913 15 ft 11 kts 319°
2026-05-08 18:15 39.25039 9.05829 15 ft 18 kts 317°
2026-05-08 18:16 39.25125 9.05795 17 ft 13 kts 31°
2026-05-08 18:16 39.25149 9.05873 15 ft 9 kts 103°
2026-05-08 18:16 39.25163 9.05956 15 ft 9 kts 57°
2026-05-08 18:16 39.25194 9.06008 15 ft 6 kts 50°
2026-05-08 18:17 39.25221 9.06019 15 ft 3 kts 350°
2026-05-08 18:17 39.25245 9.06000 16 ft 3 kts 321°
2026-05-08 18:17 39.25253 9.05990 15 ft 1 kts 316°
2026-05-08 18:17 39.25257 9.05986 15 ft 0 kts 321°
2026-05-08 18:18 39.25261 9.05982 15 ft 0 kts 321°